{"data":{"norad_id":51626,"epoch":"2026-09-19T23:53:52.286784Z","epoch_age_seconds":69266,"freshness":"FRESH","line1":"1 51626U 22012E   26262.99574406  .00000035  00000+0  55719-4 0  9997","line2":"2 51626  87.9201 347.0345 0001967  82.6479 277.4876 13.17647896226298","mean_motion":13.17647896,"eccentricity":0.0001967,"inclination_deg":87.9201,"raan_deg":347.0345,"arg_perigee_deg":82.6479,"mean_anomaly_deg":277.4876,"bstar":5.5719e-5,"rev_number":22629,"period_min":109.2856448503,"perigee_km":1192.2281055016,"apogee_km":1195.2068730577,"semimajor_km":7571.8544892796,"source":"CELESTRAK","updated_at":"2026-09-20T09:00:44.708372Z"}}